Location: Contre
(49.7477°N, 2.0963°E)
Time: 11:34:59
(UTC+00:00)

Meteor 2-12 Rocket - Pass Details

Date: 11 November 2025
Orbit: 935 x 957 km, 82.5° (Epoch: 05 December)

Event Time Altitude Azimuth Distance (km) Brightness Sun altitude
Rises 06:03:18 0° 147° (SSE) 3,627 8.3 -8.9°
Reaches altitude 10° 06:06:14 10° 135° (SE) 2,686 7.9 -8.5°
Maximum altitude 06:11:01 25° 83° (E) 1,852 6.9 -7.7°
Drops below altitude 10° 06:15:50 10° 32° (NNE) 2,696 7.0 -7.0°
Sets 06:18:46 0° 19° (NNE) 3,643 7.5 -6.6°
